Location: Le Petit-Vavre
(46.5081°N, 1.5239°E)
Time: 04:59:54
(UTC+00:00)

SL-08 RB Rocket - Pass Details

Date: 03 March 2021
Orbit: 647 x 684 km, 97.8° (Epoch: 18 April)

Event Time Altitude Azimuth Distance (km) Brightness Sun altitude
Rises 18:50:13 0° 159° (SSE) 2,964 6.8 -12.4°
Reaches altitude 10° 18:52:24 10° 157° (SSE) 2,062 6.0 -12.7°
Maximum altitude 18:56:53 71° 74° (ENE) 701 3.6 -13.5°
Drops below altitude 10° 19:01:27 10° 351° (N) 2,101 6.5 -14.3°
Sets 19:03:42 0° 349° (N) 3,025 7.3 -14.7°
